Flag for U.S.A. Weather past 2 weeks in Los Angeles, California, U.S.A.

Now
80 °F

Sunny.


Feels Like: 80 °F
Forecast: 68 / 86 °F
Wind: 7 mph from West

Location: Los Angeles / USC Campus Downtown

Current Time: Jul 28, 2014 at 7:52:39 PM

Latest Report: Jul 28, 2014 at 6:47 PM


Visibility: 10 mi

Pressure: 29.96 "Hg

Humidity: 35%

Dew point: 50 °F

Location of Los AngelesLocation

Historic Weather in Los Angeles — Graph

°F

Los Angeles temperature yesterday

Maximum temperature yesterday: 83 °F (at 3:47 PM)
Minimum temperature yesterday: 67 °F (at 4:47 AM)
Average temperature yesterday: 74 °F

Past Weeks' High & Low Weather Summary

 TemperatureHumidityPressure
High91 °F (Jul 24, 11:47 AM)87% (Jul 22, 4:47 AM)30.05 "Hg (Jul 22, 4:47 AM)
Low65 °F (Jul 18, 5:47 AM)24% (Jul 28, 5:47 PM)29.72 "Hg (Jul 24, 6:47 PM)
Average73 °F67%29.95 "Hg
* Reported Jul 13 6:47 PM — Jul 28 6:47 PM, Los Angeles, Weather by CustomWeather, © 2014

Note: Actual official high and low records may vary slightly from our data, if they occured in-between our weather recording intervals... More about our weather records

Advertising

Los Angeles weather history for previous 24 hours

 ConditionsComfort  
Time TempWeatherWind HumidityBarometerVisibility
6:47 PM
Jul 28
80 °FSunny.7 mph35%29.96 "Hg10 mi
5:47 PM83 °FSunny.6 mph24%29.96 "Hg10 mi
4:47 PM83 °FSunny.7 mph28%29.97 "Hg10 mi
3:47 PM82 °FSunny.6 mph37%30.00 "Hg10 mi
2:47 PM84 °FSunny.5 mph36%30.01 "Hg10 mi
1:47 PM87 °FSunny.5 mph31%30.01 "Hg10 mi
12:47 PM86 °FSunny.5 mph31%30.03 "Hg10 mi
11:47 AM83 °FSunny.3 mph48%30.04 "Hg10 mi
10:47 AM79 °FSunny.3 mph52%30.05 "Hg10 mi
9:47 AM77 °FSunny.5 mph62%30.05 "Hg10 mi
8:47 AM77 °FSunny.No wind62%30.04 "Hg10 mi
7:47 AM73 °FSunny.No wind71%30.03 "Hg10 mi
6:47 AM70 °FPassing clouds.No wind79%30.02 "Hg10 mi
5:47 AM68 °FPassing clouds.No wind84%30.02 "Hg10 mi
4:47 AM69 °FClear.No wind81%30.02 "Hg10 mi
3:47 AM68 °FClear.No wind84%30.02 "Hg9 mi
2:47 AM69 °FClear.3 mph84%30.01 "Hg8 mi
1:47 AM69 °FPassing clouds.No wind81%30.01 "Hg10 mi
12:47 AM69 °FClear.No wind79%30.01 "Hg10 mi
11:47 PM
Jul 27
69 °FClear.No wind79%29.99 "Hg10 mi
10:47 PM70 °FClear.3 mph79%29.96 "Hg10 mi
9:47 PM71 °FClear.3 mph78%29.93 "Hg10 mi
8:47 PM73 °FSunny.No wind71%29.91 "Hg10 mi
7:47 PM76 °FSunny.5 mph54%29.91 "Hg10 mi
Weather by CustomWeather, © 2014

See weather overviewHow to use our weather pages